TimeCST,TemperatureF,Dew PointF,Humidity,Sea Level PressureIn,VisibilityMPH,Wind Direction,Wind SpeedMPH,Gust SpeedMPH,PrecipitationIn,Events,Conditions,WindDirDegrees,DateUTC
12:53 AM,37.9,25.0,60,30.06,10.0,North,18.4,32.2,N/A,,Overcast,10,2013-11-27 06:53:00
1:53 AM,37.0,25.0,62,30.09,10.0,North,17.3,27.6,0.02,,Overcast,10,2013-11-27 07:53:00
2:53 AM,34.0,21.0,59,30.11,10.0,North,13.8,23.0,0.04,,Overcast,10,2013-11-27 08:53:00
3:53 AM,33.1,21.0,61,30.13,10.0,North,13.8,21.9,0.01,,Overcast,10,2013-11-27 09:53:00
4:53 AM,30.9,19.9,64,30.16,10.0,North,10.4,-,0.05,,Mostly Cloudy,10,2013-11-27 10:53:00
5:53 AM,28.9,18.0,64,30.19,10.0,North,12.7,20.7,0.03,,Clear,10,2013-11-27 11:53:00
6:53 AM,27.0,15.1,61,30.23,10.0,North,10.4,20.7,0.02,,Clear,360,2013-11-27 12:53:00
7:53 AM,28.0,12.0,51,30.27,10.0,North,15.0,20.7,0.01,,Clear,360,2013-11-27 13:53:00
8:53 AM,28.9,12.9,51,30.29,10.0,North,16.1,24.2,N/A,,Clear,10,2013-11-27 14:53:00
9:53 AM,30.9,12.9,47,30.30,10.0,North,17.3,21.9,0.01,,Clear,360,2013-11-27 15:53:00
10:53 AM,33.1,12.0,42,30.29,10.0,North,13.8,-,N/A,,Clear,10,2013-11-27 16:53:00
11:53 AM,35.1,12.9,40,30.27,10.0,North,11.5,20.7,0.01,,Clear,360,2013-11-27 17:53:00
12:53 PM,36.0,12.0,37,30.26,10.0,NNE,13.8,21.9,N/A,,Clear,20,2013-11-27 18:53:00
1:53 PM,37.0,14.0,39,30.28,10.0,North,10.4,18.4,N/A,,Clear,10,2013-11-27 19:53:00
2:53 PM,37.0,15.1,41,30.27,10.0,North,15.0,-,N/A,,Clear,350,2013-11-27 20:53:00
3:53 PM,36.0,15.1,43,30.29,10.0,North,12.7,17.3,N/A,,Clear,360,2013-11-27 21:53:00
4:53 PM,33.1,16.0,50,30.31,10.0,North,8.1,-,N/A,,Clear,360,2013-11-27 22:53:00
5:53 PM,30.9,16.0,54,30.35,10.0,North,8.1,-,N/A,,Clear,10,2013-11-27 23:53:00
6:53 PM,28.9,16.0,58,30.36,10.0,North,5.8,-,N/A,,Clear,10,2013-11-28 00:53:00
7:53 PM,28.0,16.0,61,30.38,10.0,North,4.6,-,N/A,,Clear,360,2013-11-28 01:53:00
8:53 PM,28.0,16.0,61,30.39,10.0,North,5.8,-,N/A,,Clear,350,2013-11-28 02:53:00
9:53 PM,27.0,16.0,63,30.40,10.0,North,3.5,-,N/A,,Clear,360,2013-11-28 03:53:00
10:53 PM,24.1,16.0,71,30.41,10.0,Calm,Calm,-,N/A,,Clear,0,2013-11-28 04:53:00
11:53 PM,24.1,17.1,75,30.42,10.0,Calm,Calm,-,N/A,,Clear,0,2013-11-28 05:53:00